Location: Unspecified
(0.0000°N, 0.0000°E)
Time: 11:01:33
(UTC+00:00)

Explorer 11/Cluster Stage 4 - Pass Details

Date: 25 November 2019
Orbit: 467 x 1259 km, 28.8° (Epoch: 15 December)

Event Time Altitude Azimuth Distance (km) Brightness Sun altitude
Rises 02:12:00 0° 286° (WNW) 4,023 - -48.9°
Reaches altitude 10° 02:14:53 10° 280° (W) 3,132 - -48.3°
Maximum altitude 02:22:29 45° 210° (SSW) 1,642 - -46.7°
Exits shadow 02:26:31 28° 155° (SSE) 2,179 9.0 -45.8°
Drops below altitude 10° 02:30:14 10° 139° (SE) 3,189 10.2 -45.0°
Sets 02:33:13 0° 133° (SE) 4,101 11.0 -44.4°
